Location: Bohy
(49.9380°N, 13.5753°E)
Time: 00:01:40
(UTC+00:00)

ERS-1 Rocket - Pass Details

Date: 19 May 2025
Orbit: 747 x 753 km, 98.2° (Epoch: 22 June)

Event Time Altitude Azimuth Distance (km) Brightness Sun altitude
Exits shadow 20:04:55 - 179° (S) 2,734 5.4 -9.9°
Reaches altitude 10° 20:06:06 10° 181° (S) 2,272 5.0 -10.0°
Maximum altitude 20:11:01 55° 260° (W) 904 3.6 -10.5°
Drops below altitude 10° 20:15:58 10° 338° (NNW) 2,289 6.8 -11.0°
Sets 20:18:19 0° 343° (NNW) 3,218 7.7 -11.3°
